TimeEDT,TemperatureF,Dew PointF,Humidity,Sea Level PressureIn,VisibilityMPH,Wind Direction,Wind SpeedMPH,Gust SpeedMPH,PrecipitationIn,Events,Conditions,WindDirDegrees,DateUTC
12:16 AM,54.3,50.9,88,29.93,10.0,NNW,10.4,16.1,N/A,,Mostly Cloudy,330,2013-08-13 04:16:00
12:35 AM,54.0,50.2,87,29.94,10.0,NNW,12.7,18.4,N/A,,Mostly Cloudy,330,2013-08-13 04:35:00
12:56 AM,54.5,49.6,84,29.94,10.0,NNW,10.4,20.7,N/A,,Overcast,340,2013-08-13 04:56:00
1:16 AM,54.0,49.1,84,29.95,10.0,NNW,8.1,16.1,N/A,,Overcast,330,2013-08-13 05:16:00
1:36 AM,53.6,48.9,84,29.94,10.0,NNW,11.5,16.1,N/A,,Overcast,340,2013-08-13 05:36:00
1:56 AM,52.7,48.6,86,29.94,10.0,NNW,11.5,16.1,N/A,,Scattered Clouds,340,2013-08-13 05:56:00
2:16 AM,52.5,47.7,84,29.95,10.0,NNW,10.4,17.3,N/A,,Clear,340,2013-08-13 06:16:00
2:36 AM,52.2,47.3,83,29.94,10.0,NNW,10.4,18.4,N/A,,Scattered Clouds,340,2013-08-13 06:36:00
2:56 AM,51.8,46.9,83,29.95,10.0,NW,8.1,-,N/A,,Scattered Clouds,320,2013-08-13 06:56:00
3:16 AM,50.5,48.2,92,29.95,10.0,NW,8.1,-,N/A,,Clear,320,2013-08-13 07:16:00
3:36 AM,50.5,48.2,92,29.95,10.0,NW,8.1,-,N/A,,Clear,320,2013-08-13 07:36:00
3:56 AM,50.4,48.2,92,29.95,10.0,NW,8.1,-,N/A,,Clear,320,2013-08-13 07:56:00
4:15 AM,50.2,47.5,90,29.96,10.0,NNW,9.2,16.1,N/A,,Clear,330,2013-08-13 08:15:00
4:36 AM,50.2,46.6,87,29.96,10.0,NNW,9.2,18.4,N/A,,Clear,330,2013-08-13 08:36:00
4:56 AM,50.0,46.4,87,29.97,10.0,NNW,10.4,18.4,N/A,,Clear,330,2013-08-13 08:56:00
5:15 AM,49.1,46.4,90,29.97,10.0,NW,8.1,-,N/A,,Clear,320,2013-08-13 09:15:00
5:36 AM,49.1,46.0,89,29.97,10.0,NNW,10.4,-,N/A,,Clear,330,2013-08-13 09:36:00
5:56 AM,49.5,46.4,89,29.98,10.0,NW,6.9,-,N/A,,Clear,320,2013-08-13 09:56:00
6:15 AM,49.5,46.6,90,29.98,10.0,NW,10.4,-,N/A,,Clear,320,2013-08-13 10:15:00
6:36 AM,49.5,46.6,90,29.98,10.0,NW,9.2,-,N/A,,Scattered Clouds,310,2013-08-13 10:36:00
6:56 AM,49.8,47.1,90,29.98,10.0,NW,8.1,-,N/A,,Clear,320,2013-08-13 10:56:00
7:15 AM,50.2,47.3,90,29.99,10.0,NW,9.2,-,N/A,,Clear,320,2013-08-13 11:15:00
7:36 AM,51.4,47.3,86,29.99,10.0,NW,9.2,16.1,N/A,,Mostly Cloudy,320,2013-08-13 11:36:00
7:56 AM,52.7,48.2,85,29.99,10.0,NNW,10.4,16.1,N/A,,Overcast,330,2013-08-13 11:56:00
8:16 AM,53.1,48.2,84,30.00,10.0,NW,11.5,-,N/A,,Mostly Cloudy,320,2013-08-13 12:16:00
8:36 AM,52.9,48.2,84,30.00,10.0,NW,9.2,16.1,N/A,,Scattered Clouds,320,2013-08-13 12:36:00
8:56 AM,54.1,48.4,81,30.00,10.0,NW,10.4,-,N/A,,Mostly Cloudy,320,2013-08-13 12:56:00
9:16 AM,53.8,48.6,82,30.00,10.0,NW,9.2,-,N/A,,Mostly Cloudy,310,2013-08-13 13:16:00
9:36 AM,53.4,48.4,83,30.00,10.0,NW,6.9,-,N/A,,Overcast,320,2013-08-13 13:36:00
9:56 AM,54.1,48.4,81,30.01,10.0,NNW,5.8,-,N/A,,Overcast,330,2013-08-13 13:56:00
10:16 AM,54.7,49.1,81,30.01,10.0,NW,4.6,-,N/A,,Overcast,320,2013-08-13 14:16:00
10:36 AM,55.6,48.9,78,30.01,10.0,NW,6.9,-,N/A,,Overcast,310,2013-08-13 14:36:00
10:56 AM,56.3,48.7,76,30.02,10.0,NNW,6.9,-,N/A,,Overcast,340,2013-08-13 14:56:00
11:16 AM,57.4,48.4,72,30.02,10.0,North,8.1,-,N/A,,Mostly Cloudy,350,2013-08-13 15:16:00
11:36 AM,57.9,46.4,65,30.02,10.0,North,10.4,16.1,N/A,,Overcast,360,2013-08-13 15:36:00
11:55 AM,59.0,46.9,64,30.02,10.0,North,9.2,-,N/A,,Mostly Cloudy,350,2013-08-13 15:55:00
12:16 PM,60.8,45.5,57,30.02,10.0,North,13.8,17.3,N/A,,Mostly Cloudy,350,2013-08-13 16:16:00
12:36 PM,57.0,46.4,68,30.02,10.0,NNW,10.4,16.1,N/A,,Overcast,330,2013-08-13 16:36:00
12:55 PM,57.9,47.1,67,30.02,10.0,NNW,10.4,-,N/A,,Overcast,340,2013-08-13 16:55:00
1:16 PM,55.9,46.6,71,30.02,10.0,NNW,12.7,21.9,N/A,,Overcast,330,2013-08-13 17:16:00
1:36 PM,59.7,44.4,57,30.02,10.0,NNW,13.8,20.7,N/A,,Scattered Clouds,330,2013-08-13 17:36:00
1:55 PM,59.9,43.0,54,30.02,10.0,NNW,16.1,26.5,N/A,,Mostly Cloudy,340,2013-08-13 17:55:00
2:16 PM,58.6,43.2,56,30.02,10.0,NNW,12.7,23.0,N/A,,Overcast,330,2013-08-13 18:16:00
2:36 PM,56.8,43.0,60,30.03,10.0,NW,16.1,25.3,N/A,,Overcast,320,2013-08-13 18:36:00
2:55 PM,57.9,43.7,59,30.03,10.0,NNW,10.4,23.0,N/A,,Overcast,340,2013-08-13 18:55:00
3:16 PM,57.9,44.2,60,30.04,10.0,NNW,15.0,23.0,N/A,,Overcast,330,2013-08-13 19:16:00
3:36 PM,57.4,45.7,65,30.03,10.0,NNW,11.5,23.0,N/A,,Overcast,330,2013-08-13 19:36:00
3:56 PM,58.5,46.4,64,30.04,10.0,NNW,10.4,17.3,N/A,,Overcast,330,2013-08-13 19:56:00
4:16 PM,56.7,46.8,69,30.04,10.0,North,10.4,17.3,N/A,,Overcast,350,2013-08-13 20:16:00
4:36 PM,57.6,46.6,67,30.05,10.0,North,15.0,19.6,N/A,,Overcast,360,2013-08-13 20:36:00
4:56 PM,57.0,46.8,69,30.05,10.0,North,12.7,20.7,N/A,,Overcast,350,2013-08-13 20:56:00
5:16 PM,57.2,47.1,69,30.05,10.0,NNW,12.7,17.3,N/A,,Overcast,340,2013-08-13 21:16:00
5:36 PM,56.5,46.9,70,30.05,10.0,North,10.4,17.3,N/A,,Overcast,350,2013-08-13 21:36:00
5:56 PM,57.2,47.1,69,30.05,10.0,North,10.4,16.1,N/A,,Overcast,350,2013-08-13 21:56:00
6:16 PM,56.3,46.9,71,30.06,10.0,North,11.5,18.4,N/A,,Overcast,350,2013-08-13 22:16:00
6:35 PM,56.5,47.8,73,30.06,10.0,NNW,11.5,20.7,N/A,,Overcast,340,2013-08-13 22:35:00
6:56 PM,56.3,47.7,73,30.06,10.0,North,9.2,-,N/A,,Overcast,350,2013-08-13 22:56:00
7:16 PM,57.6,48.2,71,30.06,10.0,NNW,8.1,-,N/A,,Overcast,330,2013-08-13 23:16:00
7:35 PM,57.0,47.7,71,30.06,10.0,North,3.5,-,N/A,,Mostly Cloudy,350,2013-08-13 23:35:00
7:56 PM,56.7,47.7,72,30.07,10.0,NNW,8.1,-,N/A,,Mostly Cloudy,330,2013-08-13 23:56:00
8:16 PM,55.4,47.7,75,30.07,10.0,NNW,8.1,-,N/A,,Scattered Clouds,330,2013-08-14 00:16:00
8:35 PM,55.4,48.2,77,30.07,10.0,NW,9.2,-,N/A,,Mostly Cloudy,320,2013-08-14 00:35:00
8:56 PM,55.6,48.4,77,30.07,10.0,NW,9.2,-,N/A,,Overcast,310,2013-08-14 00:56:00
9:16 PM,55.8,48.6,77,30.07,10.0,NW,9.2,17.3,N/A,,Overcast,320,2013-08-14 01:16:00
9:35 PM,55.2,48.2,77,30.08,10.0,NW,9.2,-,N/A,,Mostly Cloudy,320,2013-08-14 01:35:00
9:56 PM,54.5,48.4,80,30.09,10.0,NW,6.9,-,N/A,,Scattered Clouds,310,2013-08-14 01:56:00
10:16 PM,53.6,48.4,82,30.09,10.0,NW,6.9,-,N/A,,Clear,310,2013-08-14 02:16:00
10:36 PM,53.6,49.1,85,30.09,10.0,NW,10.4,-,N/A,,Mostly Cloudy,320,2013-08-14 02:36:00
10:56 PM,53.4,49.3,86,30.09,10.0,NW,8.1,-,N/A,,Overcast,320,2013-08-14 02:56:00
11:16 PM,53.6,49.6,86,30.09,10.0,NNW,8.1,-,N/A,,Overcast,330,2013-08-14 03:16:00
11:36 PM,53.2,49.3,86,30.10,10.0,NW,9.2,-,N/A,,Overcast,310,2013-08-14 03:36:00
11:56 PM,52.7,49.5,89,30.10,10.0,NW,6.9,-,N/A,,Scattered Clouds,320,2013-08-14 03:56:00